Weather History for Winter Haven, FL

Change the Weather History Date:

Thursday, September 12, 2013

  Actual Average Record
Temperature  
Mean Temperature 82 °F -  
Max Temperature 91 °F 90 °F 95 °F (1974)
Min Temperature 73 °F 71 °F 64 °F (1959)
Cooling Degree Days 16    
Growing Degree Days 32 (Base 50)    
Moisture  
Dew Point 73 °F    
Average Humidity 83    
Maximum Humidity 97    
Minimum Humidity 52    
Precipitation  
Precipitation 0.11 in - - ()
Sea Level Pressure  
Sea Level Pressure 29.99 in    
Wind  
Wind Speed 4 mph (East)    
Max Wind Speed 16 mph    
Max Gust Speed 23 mph    
Visibility 10 miles    
Events      
Averages and records for this station are not official NWS values.
T = Trace of Precipitation, MM = Missing Value Source: NWS Daily Summary

Daily Weather History Graph

Daily Weather History Graph

Search for Another Location

Airport:

Trip Planner

Search our weather history database for the weather conditions in past years. The results will help you decide how hot, cold, wet, or windy it might be!

Date:

Astronomy

Sep. 12, 2013 Rise Set
Actual Time 7:10 AM EDT 7:35 PM EDT
Civil Twilight 6:47 AM EDT 7:58 PM EDT
Nautical Twilight 6:19 AM EDT 8:26 PM EDT
Astronomical Twilight 5:51 AM EDT 8:53 PM EDT
Moon 2:04 PM EDT (9/12) 12:03 AM EDT (9/12)
Length of Visible Light 13h 11m
Length of Day
12h 24m
Waxing Crescent, 50% of the Moon is Illuminated
Sep 12
Waxing Crescent
Sep 12
First Quarter
Sep 19
Full
Sep 26
Last Quarter
Oct 4
New

Hourly Weather History & Observations

Time (EDT) Temp. Heat Index Dew Point Humidity Pressure Visibility Wind Dir Wind Speed Gust Speed Precip Events Conditions
12:53 AM 77.0 °F - 73.0 °F 88% 30.04 in 10.0 mi East 3.5 mph - N/A   Clear
1:53 AM 75.9 °F - 73.9 °F 94% 30.02 in 10.0 mi ENE 3.5 mph - N/A   Clear
2:53 AM 75.9 °F - 73.9 °F 94% 30.02 in 10.0 mi ESE 3.5 mph - N/A   Clear
3:53 AM 75.0 °F - 73.0 °F 94% 30.01 in 10.0 mi North 3.5 mph - N/A   Clear
4:53 AM 75.0 °F - 73.0 °F 94% 30.00 in 10.0 mi ENE 4.6 mph - N/A   Clear
5:53 AM 73.9 °F - 72.0 °F 93% 30.00 in 10.0 mi NE 3.5 mph - N/A   Clear
6:53 AM 73.9 °F - 73.0 °F 97% 30.01 in 10.0 mi NNE 3.5 mph - N/A   Clear
7:53 AM 75.0 °F - 73.0 °F 94% 30.03 in 10.0 mi NE 3.5 mph - N/A   Partly Cloudy
8:53 AM 79.0 °F - 73.9 °F 84% 30.04 in 10.0 mi ENE 4.6 mph - N/A   Clear
9:53 AM 82.0 °F 87.9 °F 73.9 °F 76% 30.03 in 10.0 mi East 5.8 mph - N/A   Partly Cloudy
10:14 AM 82.9 °F 88.8 °F 73.0 °F 72% 30.04 in 10.0 mi Variable 5.8 mph - N/A   Mostly Cloudy
10:49 AM 84.2 °F 89.6 °F 71.6 °F 66% 30.04 in 10.0 mi Calm Calm - N/A   Scattered Clouds
10:53 AM 84.9 °F 91.4 °F 73.0 °F 67% 30.03 in 10.0 mi East 6.9 mph - N/A   Scattered Clouds
11:53 AM 86.0 °F 91.5 °F 71.1 °F 61% 30.02 in 10.0 mi Variable 3.5 mph - N/A   Clear
12:53 PM 88.0 °F 93.8 °F 71.1 °F 57% 30.00 in 10.0 mi East 4.6 mph - N/A   Scattered Clouds
1:53 PM 90.0 °F 95.4 °F 70.0 °F 52% 29.98 in 10.0 mi North 4.6 mph - N/A   Mostly Cloudy
2:53 PM 82.0 °F 86.3 °F 71.1 °F 69% 29.96 in 10.0 mi SSE 16.1 mph 23.0 mph N/A   Mostly Cloudy
3:53 PM 79.0 °F - 73.0 °F 82% 29.94 in 10.0 mi East 4.6 mph - 0.01 in   Mostly Cloudy
4:53 PM 79.0 °F - 72.0 °F 79% 29.95 in 10.0 mi NNE 8.1 mph - 0.03 in   Overcast
5:53 PM 75.0 °F - 72.0 °F 90% 29.94 in 10.0 mi Calm Calm - 0.06 in   Overcast
6:53 PM 75.9 °F - 73.0 °F 91% 29.95 in 10.0 mi South 3.5 mph - 0.01 in   Partly Cloudy
7:53 PM 75.9 °F - 73.0 °F 91% 29.94 in 10.0 mi SSE 5.8 mph - 0.00 in   Partly Cloudy
8:53 PM 75.9 °F - 73.9 °F 94% 29.96 in 10.0 mi Calm Calm - N/A   Partly Cloudy
9:53 PM 75.9 °F - 73.0 °F 91% 29.96 in 10.0 mi Calm Calm - N/A   Mostly Cloudy
10:04 PM 75.9 °F - 73.0 °F 91% 29.96 in 10.0 mi Calm Calm - N/A   Scattered Clouds
10:53 PM 75.0 °F - 73.0 °F 94% 29.96 in 10.0 mi SSW 3.5 mph - N/A   Clear
11:53 PM 75.0 °F - 73.0 °F 94% 29.94 in 10.0 mi WSW 4.6 mph - N/A   Clear